| time (UTC) | temp C | wind direction | speed KPH | gust KPH | rain 1hr cm | rain 24hr cm | rain mn cm | humidity % | barometer mb |
| 20260508065038 | 11 | 143 | 3.2 | 9.7 | 0.00 | 0.00 | 0.00 | 80 | 1017.3 |
| 20260508064552 | 11 | 119 | 1.6 | 9.7 | 0.00 | 0.00 | 0.00 | 82 | 1017.3 |
| 20260508064040 | 11 | 130 | 1.6 | 9.7 | 0.00 | 0.00 | 0.00 | 85 | 1017.2 |
| 20260508063537 | 10 | 196 | 0.0 | 8.0 | 0.00 | 0.00 | 0.00 | 86 | 1017.3 |
| 20260508063059 | 10 | 171 | 1.6 | 8.0 | 0.00 | 0.00 | 0.00 | 87 | 1017.3 |
| 20260508062537 | 10 | 147 | 0.0 | 6.4 | 0.00 | 0.00 | 0.00 | 88 | 1017.2 |
| 20260508062038 | 9 | 0 | 1.6 | 6.4 | 0.00 | 0.00 | 0.00 | 87 | 1017.2 |
| 20260508061548 | 9 | 167 | 0.0 | 8.0 | 0.00 | 0.00 | 0.00 | 87 | 1017.2 |
| 20260508061038 | 9 | 167 | 1.6 | 8.0 | 0.00 | 0.00 | 0.00 | 87 | 1017.2 |
| 20260508060538 | 8 | 169 | 1.6 | 11.3 | 0.00 | 0.00 | 0.00 | 87 | 1017.1 |
| 20260508060046 | 8 | 0 | 3.2 | 11.3 | 0.00 | 0.00 | 0.00 | 87 | 1017.2 |
| 20260508055537 | 8 | 167 | 6.4 | 11.3 | 0.00 | 0.00 | 0.00 | 87 | 1017.1 |
| 20260508055036 | 8 | 164 | 1.6 | 9.7 | 0.00 | 0.00 | 0.00 | 87 | 1017.0 |
| 20260508054548 | 8 | 171 | 3.2 | 9.7 | 0.00 | 0.00 | 0.00 | 87 | 1017.0 |
| 20260508054037 | 8 | 169 | 4.8 | 9.7 | 0.00 | 0.00 | 0.00 | 86 | 1017.0 |
| 20260508053537 | 8 | 156 | 3.2 | 8.0 | 0.00 | 0.00 | 0.00 | 86 | 1017.0 |
| 20260508053055 | 8 | 165 | 3.2 | 8.0 | 0.00 | 0.00 | 0.00 | 86 | 1016.8 |
| 20260508052612 | 8 | 157 | 0.0 | 3.2 | 0.00 | 0.00 | 0.00 | 85 | 1016.8 |
| 20260508052037 | 8 | 0 | 0.0 | 4.8 | 0.00 | 0.00 | 0.00 | 85 | 1016.8 |
| 20260508051553 | 8 | 147 | 0.0 | 6.4 | 0.00 | 0.00 | 0.00 | 85 | 1016.8 |
| 20260508051040 | 8 | 0 | 1.6 | 8.0 | 0.00 | 0.00 | 0.00 | 84 | 1016.7 |
| 20260508050537 | 8 | 158 | 1.6 | 8.0 | 0.00 | 0.00 | 0.00 | 84 | 1016.7 |
| 20260508050051 | 8 | 190 | 0.0 | 4.8 | 0.00 | 0.00 | 0.00 | 84 | 1016.7 |
| 20260508045537 | 8 | 202 | 0.0 | 4.8 | 0.00 | 0.00 | 0.00 | 84 | 1016.7 |
| 20260508045037 | 8 | 0 | 0.0 | 1.6 | 0.00 | 0.00 | 0.00 | 84 | 1016.6 |
| 20260508044551 | 8 | 0 | 0.0 | 1.6 | 0.00 | 0.00 | 0.00 | 84 | 1016.7 |
| 20260508044040 | 8 | 0 | 0.0 | 1.6 | 0.00 | 0.00 | 0.00 | 84 | 1016.7 |
| 20260508043537 | 8 | 0 | 0.0 | 6.4 | 0.00 | 0.00 | 0.00 | 84 | 1016.7 |
| 20260508043059 | 8 | 0 | 0.0 | 6.4 | 0.00 | 0.00 | 0.00 | 85 | 1016.7 |
| 20260508042536 | 8 | 175 | 1.6 | 8.0 | 0.00 | 0.00 | 0.00 | 85 | 1016.7 |
| 20260508042037 | 8 | 178 | 3.2 | 8.0 | 0.00 | 0.00 | 0.00 | 85 | 1016.7 |
| 20260508041559 | 8 | 0 | 0.0 | 6.4 | 0.00 | 0.00 | 0.00 | 85 | 1016.6 |
| 20260508041039 | 8 | 184 | 0.0 | 3.2 | 0.00 | 0.00 | 0.00 | 85 | 1016.5 |
| 20260508040537 | 8 | 171 | 0.0 | 3.2 | 0.00 | 0.00 | 0.00 | 85 | 1016.5 |
| 20260508040053 | 8 | 0 | 0.0 | 0.0 | 0.00 | 0.00 | 0.00 | 85 | 1016.5 |
| 20260508035538 | 8 | 0 | 0.0 | 0.0 | 0.00 | 0.00 | 0.00 | 85 | 1016.5 |
| 20260508035038 | 8 | 0 | 0.0 | 1.6 | 0.00 | 0.00 | 0.00 | 85 | 1016.5 |
| 20260508034549 | 8 | 0 | 0.0 | 8.0 | 0.00 | 0.00 | 0.00 | 85 | 1016.5 |
| 20260508034037 | 8 | 0 | 0.0 | 8.0 | 0.00 | 0.00 | 0.00 | 85 | 1016.6 |
| 20260508033536 | 8 | 181 | 1.6 | 6.4 | 0.00 | 0.00 | 0.00 | 85 | 1016.6 |
| 20260508033047 | 8 | 179 | 1.6 | 8.0 | 0.00 | 0.00 | 0.00 | 85 | 1016.6 |
| 20260508032537 | 8 | 235 | 1.6 | 9.7 | 0.00 | 0.00 | 0.00 | 86 | 1016.6 |
| 20260508032042 | 8 | 169 | 3.2 | 9.7 | 0.00 | 0.00 | 0.00 | 86 | 1016.7 |
| 20260508031549 | 8 | 168 | 1.6 | 8.0 | 0.00 | 0.00 | 0.00 | 86 | 1016.6 |
| 20260508031037 | 8 | 183 | 1.6 | 6.4 | 0.00 | 0.00 | 0.00 | 86 | 1016.7 |
| 20260508030537 | 8 | 0 | 0.0 | 3.2 | 0.00 | 0.00 | 0.00 | 86 | 1016.8 |
| 20260508030051 | 8 | 0 | 0.0 | 3.2 | 0.00 | 0.00 | 0.00 | 86 | 1016.8 |
| 20260508025537 | 8 | 144 | 0.0 | 4.8 | 0.00 | 0.00 | 0.00 | 85 | 1016.7 |
| 20260508025039 | 8 | 0 | 0.0 | 4.8 | 0.00 | 0.00 | 0.00 | 85 | 1016.7 |
| 20260508024549 | 8 | 141 | 1.6 | 4.8 | 0.00 | 0.00 | 0.00 | 85 | 1016.7 |
| 20260508024038 | 8 | 160 | 0.0 | 1.6 | 0.00 | 0.00 | 0.00 | 85 | 1016.7 |
| 20260508023538 | 8 | 187 | 0.0 | 1.6 | 0.00 | 0.00 | 0.00 | 85 | 1016.8 |
| 20260508023047 | 8 | 0 | 0.0 | 0.0 | 0.00 | 0.00 | 0.00 | 85 | 1016.8 |
| 20260508022536 | 8 | 0 | 0.0 | 0.0 | 0.00 | 0.00 | 0.00 | 85 | 1016.8 |
| 20260508022036 | 8 | 0 | 0.0 | 1.6 | 0.00 | 0.00 | 0.00 | 85 | 1016.7 |
| 20260508021549 | 8 | 0 | 0.0 | 1.6 | 0.00 | 0.00 | 0.00 | 85 | 1016.7 |
| 20260508021036 | 8 | 0 | 0.0 | 1.6 | 0.00 | 0.00 | 0.00 | 84 | 1016.7 |
| 20260508020537 | 8 | 0 | 0.0 | 0.0 | 0.00 | 0.00 | 0.00 | 84 | 1016.7 |
| 20260508020049 | 8 | 0 | 0.0 | 0.0 | 0.00 | 0.00 | 0.00 | 84 | 1016.6 |
| 20260508015537 | 8 | 0 | 0.0 | 3.2 | 0.00 | 0.00 | 0.00 | 84 | 1016.7 |
| 20260508015038 | 8 | 0 | 0.0 | 4.8 | 0.00 | 0.00 | 0.00 | 84 | 1016.6 |
| 20260508014548 | 8 | 186 | 0.0 | 8.0 | 0.00 | 0.00 | 0.00 | 84 | 1016.7 |
| 20260508014038 | 8 | 153 | 3.2 | 8.0 | 0.00 | 0.00 | 0.00 | 84 | 1016.7 |
| 20260508013538 | 8 | 175 | 1.6 | 8.0 | 0.00 | 0.00 | 0.00 | 84 | 1016.7 |
| 20260508013054 | 9 | 173 | 4.8 | 9.7 | 0.00 | 0.00 | 0.00 | 84 | 1016.7 |
| 20260508012538 | 9 | 162 | 4.8 | 9.7 | 0.00 | 0.00 | 0.00 | 84 | 1016.8 |
| 20260508012037 | 9 | 173 | 1.6 | 6.4 | 0.00 | 0.00 | 0.00 | 84 | 1016.8 |
| 20260508011549 | 9 | 178 | 0.0 | 4.8 | 0.00 | 0.00 | 0.00 | 84 | 1016.8 |
| 20260508011035 | 9 | 0 | 1.6 | 6.4 | 0.00 | 0.00 | 0.00 | 84 | 1016.8 |
| 20260508010536 | 9 | 171 | 1.6 | 6.4 | 0.00 | 0.00 | 0.00 | 84 | 1016.7 |
| 20260508010044 | 9 | 165 | 1.6 | 6.4 | 0.00 | 0.00 | 0.00 | 83 | 1016.7 |
| 20260508005536 | 9 | 0 | 1.6 | 8.0 | 0.00 | 0.00 | 0.00 | 83 | 1016.7 |
| 20260508005039 | 9 | 193 | 1.6 | 9.7 | 0.00 | 0.00 | 0.00 | 83 | 1016.7 |
| 20260508004548 | 9 | 167 | 3.2 | 11.3 | 0.00 | 0.00 | 0.00 | 83 | 1016.8 |
| 20260508004040 | 10 | 175 | 6.4 | 11.3 | 0.00 | 0.00 | 0.00 | 83 | 1016.8 |
| 20260508003537 | 10 | 161 | 4.8 | 11.3 | 0.00 | 0.00 | 0.00 | 82 | 1016.8 |
| 20260508003044 | 10 | 169 | 4.8 | 11.3 | 0.00 | 0.00 | 0.00 | 81 | 1016.8 |
| 20260508002536 | 10 | 175 | 0.0 | 12.9 | 0.00 | 0.00 | 0.00 | 80 | 1016.8 |
| 20260508002036 | 10 | 0 | 3.2 | 12.9 | 0.00 | 0.00 | 0.00 | 80 | 1016.9 |
| 20260508001611 | 10 | 161 | 6.4 | 12.9 | 0.00 | 0.00 | 0.00 | 79 | 1016.9 |
| 20260508001039 | 10 | 202 | 3.2 | 8.0 | 0.00 | 0.00 | 0.00 | 79 | 1016.9 |
| 20260508000537 | 10 | 161 | 3.2 | 8.0 | 0.00 | 0.00 | 0.00 | 78 | 1017.0 |
| 20260508000048 | 10 | 207 | 1.6 | 6.4 | 0.00 | 0.00 | 0.00 | 78 | 1016.9 |
| 20260507235536 | 10 | 182 | 1.6 | 6.4 | 0.00 | 0.00 | 0.00 | 78 | 1016.9 |
| 20260507235036 | 10 | 0 | 0.0 | 4.8 | 0.00 | 0.00 | 0.00 | 78 | 1016.8 |
| 20260507234547 | 10 | 184 | 0.0 | 3.2 | 0.00 | 0.00 | 0.00 | 77 | 1016.9 |
| 20260507234058 | 10 | 0 | 0.0 | 3.2 | 0.00 | 0.00 | 0.00 | 77 | 1016.8 |
| 20260507233536 | 10 | 0 | 0.0 | 3.2 | 0.00 | 0.00 | 0.00 | 77 | 1016.8 |
| 20260507233047 | 10 | 0 | 0.0 | 8.0 | 0.00 | 0.00 | 0.00 | 76 | 1017.0 |
| 20260507232535 | 10 | 0 | 1.6 | 8.0 | 0.00 | 0.00 | 0.00 | 76 | 1016.8 |
| 20260507232037 | 10 | 167 | 3.2 | 8.0 | 0.00 | 0.00 | 0.00 | 74 | 1016.9 |
| 20260507231549 | 10 | 173 | 3.2 | 6.4 | 0.00 | 0.00 | 0.00 | 74 | 1016.9 |
| 20260507231036 | 10 | 0 | 0.0 | 4.8 | 0.00 | 0.00 | 0.00 | 74 | 1017.0 |
| 20260507230536 | 10 | 186 | 1.6 | 6.4 | 0.00 | 0.00 | 0.00 | 73 | 1016.9 |
| 20260507230048 | 10 | 0 | 0.0 | 6.4 | 0.00 | 0.00 | 0.00 | 73 | 1016.9 |
| 20260507225538 | 10 | 169 | 1.6 | 6.4 | 0.00 | 0.00 | 0.00 | 73 | 1016.9 |
| 20260507225038 | 10 | 174 | 1.6 | 4.8 | 0.00 | 0.00 | 0.00 | 73 | 1017.0 |
| 20260507224551 | 11 | 0 | 0.0 | 4.8 | 0.00 | 0.00 | 0.00 | 72 | 1017.0 |
| 20260507224036 | 11 | 163 | 0.0 | 6.4 | 0.00 | 0.00 | 0.00 | 72 | 1016.8 |
| 20260507223536 | 11 | 163 | 0.0 | 6.4 | 0.00 | 0.00 | 0.00 | 72 | 1016.7 |
| 20260507223051 | 11 | 165 | 1.6 | 6.4 | 0.00 | 0.00 | 0.00 | 72 | 1016.8 |
| 20260507222536 | 11 | 0 | 0.0 | 6.4 | 0.00 | 0.00 | 0.00 | 72 | 1016.8 |
| 20260507222036 | 11 | 0 | 0.0 | 8.0 | 0.00 | 0.00 | 0.00 | 72 | 1016.9 |
| 20260507221547 | 11 | 206 | 1.6 | 8.0 | 0.00 | 0.00 | 0.00 | 71 | 1016.8 |
| 20260507221036 | 11 | 0 | 0.0 | 6.4 | 0.00 | 0.00 | 0.00 | 71 | 1016.8 |
| 20260507220535 | 11 | 189 | 0.0 | 6.4 | 0.00 | 0.00 | 0.00 | 71 | 1016.9 |
| 20260507220049 | 11 | 145 | 0.0 | 6.4 | 0.00 | 0.00 | 0.00 | 71 | 1016.8 |
| 20260507215537 | 11 | 0 | 0.0 | 6.4 | 0.00 | 0.00 | 0.00 | 71 | 1016.8 |
| 20260507215039 | 11 | 0 | 1.6 | 8.0 | 0.00 | 0.00 | 0.00 | 71 | 1016.8 |
| 20260507214551 | 11 | 189 | 1.6 | 8.0 | 0.00 | 0.00 | 0.00 | 71 | 1016.7 |
| 20260507214036 | 11 | 193 | 1.6 | 4.8 | 0.00 | 0.00 | 0.00 | 71 | 1016.8 |
| 20260507213537 | 11 | 0 | 0.0 | 4.8 | 0.00 | 0.00 | 0.00 | 71 | 1016.8 |
| 20260507213048 | 11 | 171 | 0.0 | 4.8 | 0.00 | 0.00 | 0.00 | 71 | 1016.7 |
| 20260507212536 | 11 | 0 | 0.0 | 4.8 | 0.00 | 0.00 | 0.00 | 71 | 1016.7 |
| 20260507212036 | 11 | 188 | 0.0 | 4.8 | 0.00 | 0.00 | 0.00 | 71 | 1016.7 |
| 20260507211547 | 11 | 0 | 0.0 | 1.6 | 0.00 | 0.00 | 0.00 | 71 | 1016.7 |
| 20260507211037 | 11 | 0 | 0.0 | 1.6 | 0.00 | 0.00 | 0.00 | 71 | 1016.7 |
| 20260507210541 | 11 | 0 | 0.0 | 0.0 | 0.00 | 0.00 | 0.00 | 71 | 1016.7 |
| 20260507210051 | 11 | 0 | 0.0 | 0.0 | 0.00 | 0.00 | 0.00 | 71 | 1016.7 |
| 20260507205537 | 11 | 0 | 0.0 | 1.6 | 0.00 | 0.00 | 0.00 | 71 | 1016.6 |
| 20260507205039 | 11 | 0 | 0.0 | 4.8 | 0.00 | 0.00 | 0.00 | 71 | 1016.5 |
| 20260507204556 | 11 | 0 | 0.0 | 4.8 | 0.00 | 0.00 | 0.00 | 70 | 1016.6 |
| 20260507204037 | 11 | 0 | 0.0 | 4.8 | 0.00 | 0.00 | 0.00 | 70 | 1016.6 |
| 20260507203537 | 11 | 0 | 0.0 | 4.8 | 0.00 | 0.00 | 0.00 | 69 | 1016.5 |
| 20260507203049 | 11 | 0 | 0.0 | 11.3 | 0.00 | 0.00 | 0.00 | 68 | 1016.5 |
| 20260507202539 | 11 | 0 | 0.0 | 11.3 | 0.00 | 0.00 | 0.00 | 68 | 1016.4 |
| 20260507202040 | 11 | 198 | 3.2 | 11.3 | 0.00 | 0.00 | 0.00 | 68 | 1016.4 |
| 20260507201553 | 11 | 217 | 1.6 | 11.3 | 0.00 | 0.00 | 0.00 | 68 | 1016.3 |
| 20260507201037 | 11 | 201 | 1.6 | 11.3 | 0.00 | 0.00 | 0.00 | 67 | 1016.3 |
| 20260507200538 | 11 | 0 | 3.2 | 11.3 | 0.00 | 0.00 | 0.00 | 67 | 1016.2 |
| 20260507200041 | 11 | 223 | 0.0 | 8.0 | 0.00 | 0.00 | 0.00 | 67 | 1016.2 |
| 20260507195537 | 12 | 211 | 0.0 | 4.8 | 0.00 | 0.00 | 0.00 | 66 | 1016.1 |
| 20260507195037 | 12 | 0 | 0.0 | 6.4 | 0.00 | 0.00 | 0.00 | 66 | 1016.2 |
| 20260507194547 | 12 | 0 | 0.0 | 6.4 | 0.00 | 0.00 | 0.00 | 66 | 1016.1 |
| 20260507194037 | 12 | 207 | 1.6 | 6.4 | 0.00 | 0.00 | 0.00 | 66 | 1016.0 |
| 20260507193537 | 12 | 188 | 1.6 | 6.4 | 0.00 | 0.00 | 0.00 | 65 | 1016.0 |
| 20260507193050 | 12 | 202 | 1.6 | 8.0 | 0.00 | 0.00 | 0.00 | 65 | 1016.0 |
| 20260507192536 | 12 | 0 | 0.0 | 8.0 | 0.00 | 0.00 | 0.00 | 65 | 1015.9 |
| 20260507192036 | 12 | 221 | 1.6 | 8.0 | 0.00 | 0.00 | 0.00 | 64 | 1016.0 |
| 20260507191552 | 12 | 219 | 1.6 | 8.0 | 0.00 | 0.00 | 0.00 | 65 | 1016.0 |
| 20260507191038 | 12 | 188 | 0.0 | 9.7 | 0.00 | 0.00 | 0.00 | 64 | 1015.9 |
| 20260507190537 | 12 | 214 | 3.2 | 9.7 | 0.00 | 0.00 | 0.00 | 64 | 1015.9 |
| 20260507190053 | 12 | 178 | 1.6 | 9.7 | 0.00 | 0.00 | 0.00 | 63 | 1015.9 |
| 20260507185537 | 12 | 0 | 0.0 | 9.7 | 0.00 | 0.00 | 0.00 | 63 | 1015.9 |
| 20260507185040 | 12 | 0 | 1.6 | 12.9 | 0.00 | 0.00 | 0.00 | 62 | 1015.8 |
| 20260507184550 | 12 | 222 | 1.6 | 12.9 | 0.00 | 0.00 | 0.00 | 62 | 1016.0 |
| 20260507184037 | 12 | 0 | 1.6 | 14.5 | 0.00 | 0.00 | 0.00 | 61 | 1015.9 |
| 20260507183537 | 12 | 0 | 1.6 | 16.1 | 0.00 | 0.00 | 0.00 | 60 | 1015.8 |
| 20260507183053 | 12 | 219 | 3.2 | 16.1 | 0.00 | 0.00 | 0.00 | 61 | 1015.8 |
| 20260507182537 | 13 | 0 | 1.6 | 11.3 | 0.00 | 0.00 | 0.00 | 61 | 1015.8 |
| 20260507182038 | 13 | 190 | 1.6 | 12.9 | 0.00 | 0.00 | 0.00 | 60 | 1015.7 |
| 20260507181559 | 13 | 0 | 1.6 | 12.9 | 0.00 | 0.00 | 0.00 | 60 | 1015.7 |
| 20260507181037 | 13 | 0 | 0.0 | 9.7 | 0.00 | 0.00 | 0.00 | 60 | 1015.6 |
| 20260507180537 | 13 | 131 | 1.6 | 11.3 | 0.00 | 0.00 | 0.00 | 60 | 1015.5 |
| 20260507180049 | 13 | 0 | 3.2 | 11.3 | 0.00 | 0.00 | 0.00 | 60 | 1015.5 |
| 20260507175538 | 13 | 176 | 0.0 | 11.3 | 0.00 | 0.00 | 0.00 | 60 | 1015.6 |
| 20260507175037 | 13 | 0 | 3.2 | 11.3 | 0.00 | 0.00 | 0.00 | 61 | 1015.6 |
| 20260507174557 | 13 | 266 | 1.6 | 17.7 | 0.00 | 0.00 | 0.00 | 59 | 1015.5 |
| 20260507174036 | 13 | 0 | 6.4 | 17.7 | 0.00 | 0.00 | 0.00 | 58 | 1015.5 |
| 20260507173541 | 13 | 173 | 4.8 | 14.5 | 0.00 | 0.00 | 0.00 | 61 | 1015.5 |
| 20260507173051 | 13 | 199 | 4.8 | 12.9 | 0.00 | 0.00 | 0.00 | 59 | 1015.6 |
| 20260507172539 | 13 | 209 | 3.2 | 14.5 | 0.00 | 0.00 | 0.00 | 59 | 1015.5 |
| 20260507172037 | 13 | 173 | 4.8 | 14.5 | 0.00 | 0.00 | 0.00 | 60 | 1015.5 |
| 20260507171556 | 13 | 161 | 3.2 | 14.5 | 0.00 | 0.00 | 0.00 | 60 | 1015.6 |
| 20260507171037 | 13 | 195 | 3.2 | 17.7 | 0.00 | 0.00 | 0.00 | 60 | 1015.5 |
| 20260507170539 | 13 | 181 | 8.0 | 17.7 | 0.00 | 0.00 | 0.00 | 59 | 1015.5 |
| 20260507170052 | 14 | 201 | 9.7 | 17.7 | 0.00 | 0.00 | 0.00 | 60 | 1015.5 |
| 20260507165537 | 14 | 126 | 4.8 | 16.1 | 0.00 | 0.00 | 0.00 | 61 | 1015.5 |
| 20260507165037 | 14 | 185 | 4.8 | 16.1 | 0.00 | 0.00 | 0.00 | 59 | 1015.6 |
| 20260507164547 | 14 | 167 | 8.0 | 19.3 | 0.00 | 0.00 | 0.00 | 59 | 1015.6 |
| 20260507164040 | 14 | 180 | 8.0 | 19.3 | 0.00 | 0.00 | 0.00 | 60 | 1015.5 |
| 20260507163538 | 14 | 178 | 9.7 | 16.1 | 0.00 | 0.00 | 0.00 | 59 | 1015.5 |
| 20260507163045 | 14 | 174 | 4.8 | 14.5 | 0.00 | 0.00 | 0.00 | 60 | 1015.4 |
| 20260507162538 | 14 | 124 | 8.0 | 14.5 | 0.00 | 0.00 | 0.00 | 59 | 1015.5 |
| 20260507162037 | 15 | 165 | 3.2 | 16.1 | 0.00 | 0.00 | 0.00 | 61 | 1015.4 |
| 20260507161544 | 15 | 185 | 3.2 | 16.1 | 0.00 | 0.00 | 0.00 | 60 | 1015.3 |
| 20260507161041 | 15 | 144 | 8.0 | 16.1 | 0.00 | 0.00 | 0.00 | 58 | 1015.4 |
| 20260507160538 | 15 | 130 | 4.8 | 16.1 | 0.00 | 0.00 | 0.00 | 60 | 1015.3 |
| 20260507160053 | 15 | 171 | 6.4 | 16.1 | 0.00 | 0.00 | 0.00 | 55 | 1015.4 |
| 20260507155537 | 14 | 178 | 3.2 | 9.7 | 0.00 | 0.00 | 0.00 | 59 | 1015.5 |
| 20260507155037 | 14 | 111 | 1.6 | 14.5 | 0.00 | 0.00 | 0.00 | 55 | 1015.3 |
| 20260507154549 | 15 | 134 | 8.0 | 16.1 | 0.00 | 0.00 | 0.00 | 60 | 1015.6 |
| 20260507154037 | 15 | 178 | 4.8 | 17.7 | 0.00 | 0.00 | 0.00 | 57 | 1015.5 |
| 20260507153537 | 15 | 149 | 8.0 | 17.7 | 0.00 | 0.00 | 0.00 | 59 | 1015.6 |
| 20260507153058 | 15 | 192 | 4.8 | 17.7 | 0.00 | 0.00 | 0.00 | 59 | 1015.5 |
| 20260507152537 | 15 | 225 | 8.0 | 17.7 | 0.00 | 0.00 | 0.00 | 57 | 1015.5 |
| 20260507152038 | 15 | 140 | 4.8 | 17.7 | 0.00 | 0.00 | 0.00 | 59 | 1015.5 |
| 20260507151550 | 15 | 163 | 6.4 | 17.7 | 0.00 | 0.00 | 0.00 | 60 | 1015.5 |
| 20260507151037 | 15 | 143 | 6.4 | 14.5 | 0.00 | 0.00 | 0.00 | 60 | 1015.5 |
| 20260507150538 | 15 | 157 | 6.4 | 14.5 | 0.00 | 0.00 | 0.00 | 58 | 1015.6 |
| 20260507150049 | 15 | 214 | 6.4 | 12.9 | 0.00 | 0.00 | 0.00 | 60 | 1015.6 |
| 20260507145537 | 15 | 0 | 3.2 | 11.3 | 0.00 | 0.00 | 0.00 | 60 | 1015.7 |
| 20260507145037 | 15 | 185 | 4.8 | 12.9 | 0.00 | 0.00 | 0.00 | 52 | 1015.6 |
| 20260507144548 | 15 | 193 | 3.2 | 12.9 | 0.00 | 0.00 | 0.00 | 57 | 1015.7 |
| 20260507144039 | 15 | 186 | 1.6 | 12.9 | 0.00 | 0.00 | 0.00 | 56 | 1015.7 |
| 20260507143538 | 15 | 143 | 3.2 | 12.9 | 0.00 | 0.00 | 0.00 | 59 | 1015.7 |
| 20260507143050 | 15 | 185 | 4.8 | 14.5 | 0.00 | 0.00 | 0.00 | 58 | 1015.8 |
| 20260507142536 | 15 | 163 | 6.4 | 14.5 | 0.00 | 0.00 | 0.00 | 57 | 1015.8 |
| 20260507142036 | 15 | 0 | 1.6 | 11.3 | 0.00 | 0.00 | 0.00 | 58 | 1015.9 |
| 20260507141547 | 15 | 0 | 0.0 | 17.7 | 0.00 | 0.00 | 0.00 | 61 | 1015.9 |
| 20260507141036 | 14 | 179 | 6.4 | 17.7 | 0.00 | 0.00 | 0.00 | 58 | 1015.9 |
| 20260507140536 | 14 | 141 | 8.0 | 17.7 | 0.00 | 0.00 | 0.00 | 60 | 1016.0 |
| 20260507140053 | 15 | 134 | 9.7 | 17.7 | 0.00 | 0.00 | 0.00 | 60 | 1016.0 |
| 20260507135538 | 15 | 142 | 3.2 | 16.1 | 0.00 | 0.00 | 0.00 | 63 | 1016.1 |
| 20260507135037 | 14 | 152 | 8.0 | 16.1 | 0.00 | 0.00 | 0.00 | 58 | 1016.0 |
| 20260507134554 | 15 | 142 | 9.7 | 16.1 | 0.00 | 0.00 | 0.00 | 56 | 1016.1 |
| 20260507134037 | 15 | 121 | 6.4 | 14.5 | 0.00 | 0.00 | 0.00 | 59 | 1016.1 |
| 20260507133538 | 15 | 144 | 3.2 | 11.3 | 0.00 | 0.00 | 0.00 | 60 | 1016.1 |
| 20260507133052 | 14 | 106 | 4.8 | 12.9 | 0.00 | 0.00 | 0.00 | 59 | 1016.1 |
| 20260507132537 | 14 | 212 | 6.4 | 16.1 | 0.00 | 0.00 | 0.00 | 60 | 1016.1 |
| 20260507132041 | 14 | 161 | 8.0 | 16.1 | 0.00 | 0.00 | 0.00 | 59 | 1016.1 |
| 20260507131602 | 15 | 144 | 3.2 | 16.1 | 0.00 | 0.00 | 0.00 | 58 | 1016.2 |
| 20260507131036 | 15 | 0 | 1.6 | 14.5 | 0.00 | 0.00 | 0.00 | 61 | 1016.2 |
| 20260507130538 | 15 | 168 | 4.8 | 14.5 | 0.00 | 0.00 | 0.00 | 62 | 1016.2 |
| 20260507130105 | 14 | 142 | 1.6 | 16.1 | 0.00 | 0.00 | 0.00 | 59 | 1016.2 |
| 20260507125536 | 15 | 110 | 8.0 | 16.1 | 0.00 | 0.00 | 0.00 | 54 | 1016.2 |
| 20260507125037 | 16 | 138 | 6.4 | 16.1 | 0.00 | 0.00 | 0.00 | 54 | 1016.2 |
| 20260507124554 | 16 | 195 | 11.3 | 16.1 | 0.00 | 0.00 | 0.00 | 58 | 1016.2 |
| 20260507124038 | 16 | 114 | 3.2 | 12.9 | 0.00 | 0.00 | 0.00 | 58 | 1016.2 |
| 20260507123537 | 16 | 200 | 6.4 | 17.7 | 0.00 | 0.00 | 0.00 | 59 | 1016.3 |
| 20260507123046 | 15 | 136 | 8.0 | 17.7 | 0.00 | 0.00 | 0.00 | 57 | 1016.3 |
| 20260507122537 | 15 | 144 | 9.7 | 20.9 | 0.00 | 0.00 | 0.00 | 57 | 1016.3 |
| 20260507122038 | 15 | 126 | 8.0 | 20.9 | 0.00 | 0.00 | 0.00 | 61 | 1016.4 |
| 20260507121602 | 15 | 122 | 8.0 | 16.1 | 0.00 | 0.00 | 0.00 | 56 | 1016.4 |
| 20260507121037 | 15 | 132 | 4.8 | 14.5 | 0.00 | 0.00 | 0.00 | 60 | 1016.5 |
| 20260507120537 | 15 | 140 | 6.4 | 14.5 | 0.00 | 0.00 | 0.00 | 61 | 1016.6 |
| 20260507120100 | 15 | 132 | 3.2 | 14.5 | 0.00 | 0.00 | 0.00 | 62 | 1016.5 |
| 20260507115538 | 15 | 185 | 4.8 | 14.5 | 0.00 | 0.00 | 0.00 | 64 | 1016.6 |
| 20260507115037 | 15 | 132 | 0.0 | 12.9 | 0.00 | 0.00 | 0.00 | 65 | 1016.6 |
| 20260507114604 | 15 | 165 | 1.6 | 9.7 | 0.00 | 0.00 | 0.00 | 63 | 1016.6 |
| 20260507114037 | 14 | 201 | 3.2 | 17.7 | 0.00 | 0.00 | 0.00 | 62 | 1016.7 |
| 20260507113538 | 14 | 150 | 6.4 | 19.3 | 0.00 | 0.00 | 0.00 | 62 | 1016.6 |
| 20260507113051 | 15 | 174 | 8.0 | 19.3 | 0.00 | 0.00 | 0.00 | 61 | 1016.6 |
| 20260507112537 | 15 | 128 | 8.0 | 16.1 | 0.00 | 0.00 | 0.00 | 62 | 1016.7 |
| 20260507112037 | 15 | 163 | 8.0 | 16.1 | 0.00 | 0.00 | 0.00 | 63 | 1016.7 |
| 20260507111547 | 15 | 131 | 6.4 | 16.1 | 0.00 | 0.00 | 0.00 | 64 | 1016.7 |
| 20260507111038 | 15 | 0 | 4.8 | 19.3 | 0.00 | 0.00 | 0.00 | 62 | 1016.8 |
| 20260507110539 | 14 | 172 | 8.0 | 19.3 | 0.00 | 0.00 | 0.00 | 64 | 1017.0 |
| 20260507110048 | 14 | 188 | 3.2 | 14.5 | 0.00 | 0.00 | 0.00 | 64 | 1017.0 |
| 20260507105537 | 14 | 135 | 1.6 | 16.1 | 0.00 | 0.00 | 0.00 | 64 | 1017.0 |
| 20260507105041 | 13 | 157 | 8.0 | 17.7 | 0.00 | 0.00 | 0.00 | 64 | 1017.0 |
| 20260507104549 | 14 | 133 | 4.8 | 17.7 | 0.00 | 0.00 | 0.00 | 67 | 1017.0 |
| 20260507104038 | 14 | 147 | 4.8 | 17.7 | 0.00 | 0.00 | 0.00 | 64 | 1017.1 |
| 20260507103542 | 14 | 158 | 8.0 | 17.7 | 0.00 | 0.00 | 0.00 | 66 | 1017.1 |
| 20260507103051 | 13 | 153 | 9.7 | 17.7 | 0.00 | 0.00 | 0.00 | 68 | 1017.1 |
| 20260507102538 | 13 | 115 | 8.0 | 17.7 | 0.00 | 0.00 | 0.00 | 68 | 1017.2 |
| 20260507102038 | 13 | 148 | 8.0 | 16.1 | 0.00 | 0.00 | 0.00 | 70 | 1017.3 |
| 20260507101546 | 13 | 121 | 8.0 | 17.7 | 0.00 | 0.00 | 0.00 | 71 | 1017.3 |
| 20260507101037 | 13 | 145 | 9.7 | 17.7 | 0.00 | 0.00 | 0.00 | 72 | 1017.4 |
| 20260507100542 | 12 | 139 | 4.8 | 16.1 | 0.00 | 0.00 | 0.00 | 74 | 1017.4 |
| 20260507100048 | 12 | 145 | 9.7 | 17.7 | 0.00 | 0.00 | 0.00 | 75 | 1017.3 |
| 20260507095537 | 12 | 126 | 9.7 | 17.7 | 0.00 | 0.00 | 0.00 | 75 | 1017.3 |
| 20260507095038 | 11 | 134 | 4.8 | 19.3 | 0.00 | 0.00 | 0.00 | 75 | 1017.3 |
| 20260507094548 | 11 | 154 | 8.0 | 19.3 | 0.00 | 0.00 | 0.00 | 75 | 1017.3 |
| 20260507094038 | 11 | 115 | 9.7 | 17.7 | 0.00 | 0.00 | 0.00 | 77 | 1017.3 |
| 20260507093538 | 11 | 134 | 3.2 | 12.9 | 0.00 | 0.00 | 0.00 | 79 | 1017.3 |
| 20260507093055 | 11 | 149 | 4.8 | 12.9 | 0.00 | 0.00 | 0.00 | 78 | 1017.3 |
| 20260507092538 | 11 | 116 | 3.2 | 14.5 | 0.00 | 0.00 | 0.00 | 77 | 1017.2 |
| 20260507092037 | 11 | 126 | 8.0 | 14.5 | 0.00 | 0.00 | 0.00 | 78 | 1017.3 |
| 20260507091552 | 10 | 130 | 6.4 | 14.5 | 0.00 | 0.00 | 0.00 | 79 | 1017.3 |
| 20260507091038 | 10 | 171 | 6.4 | 17.7 | 0.00 | 0.00 | 0.00 | 79 | 1017.4 |
| 20260507090538 | 10 | 128 | 11.3 | 17.7 | 0.00 | 0.00 | 0.00 | 79 | 1017.3 |
| 20260507090047 | 10 | 135 | 8.0 | 14.5 | 0.00 | 0.00 | 0.00 | 79 | 1017.3 |
| 20260507085537 | 10 | 159 | 6.4 | 16.1 | 0.00 | 0.00 | 0.00 | 80 | 1017.3 |
| 20260507085038 | 10 | 159 | 8.0 | 16.1 | 0.00 | 0.00 | 0.00 | 80 | 1017.3 |
| 20260507084547 | 10 | 113 | 8.0 | 14.5 | 0.00 | 0.00 | 0.00 | 80 | 1017.3 |
| 20260507084036 | 10 | 128 | 8.0 | 14.5 | 0.00 | 0.00 | 0.00 | 81 | 1017.4 |
| 20260507083537 | 10 | 141 | 6.4 | 14.5 | 0.00 | 0.00 | 0.00 | 82 | 1017.4 |
| 20260507083050 | 9 | 163 | 4.8 | 12.9 | 0.00 | 0.00 | 0.00 | 83 | 1017.3 |
| 20260507082538 | 9 | 134 | 4.8 | 14.5 | 0.00 | 0.00 | 0.00 | 83 | 1017.3 |
| 20260507082037 | 9 | 136 | 4.8 | 14.5 | 0.00 | 0.00 | 0.00 | 83 | 1017.4 |
| 20260507081554 | 9 | 137 | 8.0 | 14.5 | 0.00 | 0.00 | 0.00 | 82 | 1017.3 |
| 20260507081038 | 9 | 142 | 9.7 | 14.5 | 0.00 | 0.00 | 0.00 | 83 | 1017.3 |
| 20260507080537 | 9 | 127 | 8.0 | 17.7 | 0.00 | 0.00 | 0.00 | 84 | 1017.3 |
| 20260507080057 | 8 | 184 | 4.8 | 17.7 | 0.00 | 0.00 | 0.00 | 84 | 1017.3 |
| 20260507075538 | 8 | 150 | 6.4 | 12.9 | 0.00 | 0.00 | 0.00 | 85 | 1017.3 |
| 20260507075038 | 8 | 137 | 4.8 | 16.1 | 0.00 | 0.00 | 0.00 | 86 | 1017.3 |
| 20260507074600 | 8 | 136 | 9.7 | 16.1 | 0.00 | 0.00 | 0.00 | 86 | 1017.3 |
| 20260507074037 | 8 | 136 | 8.0 | 16.1 | 0.00 | 0.00 | 0.00 | 86 | 1017.3 |
| 20260507073540 | 7 | 146 | 6.4 | 14.5 | 0.00 | 0.00 | 0.00 | 86 | 1017.2 |
| 20260507073046 | 7 | 167 | 4.8 | 19.3 | 0.00 | 0.00 | 0.00 | 86 | 1017.2 |
| 20260507072538 | 7 | 144 | 9.7 | 19.3 | 0.00 | 0.00 | 0.00 | 86 | 1017.2 |
| 20260507072036 | 7 | 129 | 11.3 | 19.3 | 0.00 | 0.00 | 0.00 | 87 | 1017.2 |
| 20260507071546 | 7 | 134 | 8.0 | 17.7 | 0.00 | 0.00 | 0.00 | 87 | 1017.2 |
| 20260507071038 | 7 | 140 | 11.3 | 17.7 | 0.00 | 0.00 | 0.00 | 87 | 1017.2 |
| 20260507070538 | 7 | 145 | 11.3 | 17.7 | 0.00 | 0.00 | 0.00 | 88 | 1017.2 |
| 20260507070046 | 7 | 131 | 8.0 | 16.1 | 0.00 | 0.00 | 0.00 | 88 | 1017.2 |
| 20260507065538 | 7 | 138 | 6.4 | 12.9 | 0.00 | 0.00 | 0.00 | 88 | 1017.2 |